Regional Weather Roundup
Issued by NWS Sioux Falls, SD

Home | Current Version | Previous Version | Text Only | Print | Product List | Glossary Off
Versions: 1 2 3 4 5 6 7 8 9 10 11 12 13 14 15 16 17 18 19 20 21 22 23 24 25 26 27 28 29 30 31 32 33 34 35 36 37 38 39 40 41 42 43 44 45 46 47 48 49 50

000
ASUS43 KFSD 091110
RWRFSD

WEATHER ROUNDUP FOR SE SOUTH DAKOTA/SW MINNESOTA/NW IOWA
NATIONAL WEATHER SERVICE SIOUX FALLS SD
500 AM CST TUE FEB 09 2016

NOTE: "FAIR" INDICATES FEW OR NO CLOUDS BELOW 12,000 FEET WITH NO
SIGNIFICANT WEATHER AND OR OBSTRUCTIONS TO VISIBILITY.


SDZ038>040-050-052>070-091200-
SOUTHEAST SOUTH DAKOTA

CITY           SKY/WX    TMP DP  RH WIND       PRES   REMARKS
BROOKINGS      CLEAR      5  -1  76 N16G24    30.16R WCI -14
CHAMBERLAIN    CLOUDY    20  10  64 N16G22    30.27R WCI   6
HURON          PTCLDY    13   7  77 N13       30.27R WCI  -2
MADISON        FAIR       7   5  92 N20G28    30.18R WCI -13
MITCHELL       PTCLDY    15   9  76 N13       30.28R WCI   1
SIOUX FALLS    CLEAR      8   0  69 N21       30.17R WCI -12
WINNER         CLOUDY    24  14  65 N12       30.25R WCI  13
YANKTON        CLEAR     14   7  73 NW20G25   30.23R WCI  -3
$$

MNZ071-072-080-081-089-090-097-098-091200-
SOUTHWEST MINNESOTA

CITY           SKY/WX    TMP DP  RH WIND       PRES   REMARKS
FAIRMONT       CLEAR      7   0  72 NW21      30.06R WCI -13
JACKSON        CLOUDY     7   1  78 NW26G38   30.08R HAZE    WCI -16
LUVERNE        CLEAR      9   1  72 N15G22    30.15R WCI  -8
MARSHALL       CLEAR      6   1  80 N25G31    30.15R WCI -16
MONTEVIDEO     CLEAR      5   1  85 N21G26    30.19S WCI -16
PIPESTONE      CLEAR      7  -4  61 N15G23    30.13R WCI -11
REDWOOD FALLS  PTCLDY     6   0  76 NW16G24   30.14R WCI -12
TRACY            N/A      7   3  84 N21G28    30.14R FOG     WCI -14
WINDOM         LGT SNOW   5   1  85 NW30      30.08R VSB 1   WCI -19
WORTHINGTON    CLOUDY     5   0  78 N25       30.11R WCI -18
$$

IAZ001>003-012>014-020>022-031-032-NEZ013-014-SDZ071-091200-
NORTHWEST IOWA

CITY           SKY/WX    TMP DP  RH WIND       PRES   REMARKS
CHEROKEE       MOCLDY     7   3  82 N14G24    30.14R WCI -10
DENISON        MOCLDY     9   3  78 N22       30.10R WCI -11
ESTHERVILLE    CLOUDY     5   1  83 NW26      30.08R FOG     WCI -18
LE MARS        PTCLDY     9   5  85 NW12      30.19R WCI  -6
ORANGE CITY    CLEAR      7   1  78 N15G22    30.13R WCI -11
SHELDON        CLOUDY     5   1  85 NW21      30.12R WCI -16
SIOUX CITY     PTCLDY    14   4  64 N24G30    30.17R WCI  -5
SPENCER        CLOUDY     5  -1  76 N25       30.11R WCI -18
STORM LAKE     LGT SNOW   7   3  85 N18G26    30.09R WCI -12
$$

ABBREVIATIONS USED IN REMARKS
   TC - TEMPERATURE IN CELSIUS
  WCI - WIND CHILL INDEX
   HX - HEAT INDEX
  VSB - VISIBILITY




USA.gov is the U.S. government's official web portal to all federal, state and local government web resources and services.